Regional Weather Roundup
Issued by NWS Albany, NY

Home | Current Version | Previous Version | Text Only | Print | Product List | Glossary On
Versions: 1 2 3 4 5 6 7 8 9 10 11 12 13 14 15 16 17 18 19 20 21 22 23 24 25 26 27
000
ASUS41 KALY 250710
RWRALY

NEW YORK STATE HOURLY WEATHER ROUNDUP
NATIONAL WEATHER SERVICE ALBANY NY
300 AM EDT SUN JUN 25 2017

NOTE: "FAIR" INDICATES FEW OR NO CLOUDS BELOW 12,000 FEET WITH NO
SIGNIFICANT WEATHER AND/OR NO OBSTRUCTIONS TO VISIBILITY.

NYZ032-033-038>043-046>054-057>066-NYZ062>081-082-084-250800-
EAST


CITY           SKY/WX    TMP DP  RH WIND       PRES   REMARKS
ALBANY         CLEAR     62  53  72 W8        29.92S
GLENS FALLS    CLEAR     55  50  83 CALM      29.91R
POUGHKEEPSIE   FOG       62  61  96 CALM      29.92S VSB 1/4
NEWBURGH       CLEAR     64  63  94 CALM      29.95S
MONTGOMERY     CLEAR     62  60  93 CALM      29.94S
ISLIP          CLEAR     69  61  75 NW3       29.91S
NEW YORK CITY  CLOUDY    73  61  65 N8        29.91S
CENTRAL PARK   CLOUDY    73  59  61 CALM      29.95R
$$

NYZ005>009-017-018-044>046-055-056-250800-
CENTRAL


CITY           SKY/WX    TMP DP  RH WIND       PRES   REMARKS
FULTON         CLEAR     56  53  90 CALM      29.92S
SYRACUSE       PTCLDY    59  56  89 CALM      29.92S
ROME           PTCLDY    54  54 100 CALM      29.94R
ELMIRA         NOT AVBL
BINGHAMTON     NOT AVBL
MONTICELLO     CLEAR     57  57 100 CALM      29.99S
$$

NYZ026>034-041>043-087-250800-
NORTH


CITY           SKY/WX    TMP DP  RH WIND       PRES   REMARKS
WATERTOWN      CLEAR     58  58 100 S5        29.90S
FORT DRUM      NOT AVBL
OGDENSBURG     FAIR      57  55  95 CALM      29.89S
MASSENA        CLEAR     55  55 100 SW6       29.89R
SARANAC LAKE   PTCLDY    50  50 100 CALM      29.91R
PLATTSBURGH    CLEAR     61  52  72 VRB5      29.86R
$$

NYZ001>004-010>016-019>021-085-250800-
WEST


CITY           SKY/WX    TMP DP  RH WIND       PRES   REMARKS
NIAGARA FALLS  PTCLDY    62  53  72 SW8       29.93F
BUFFALO        CLEAR     60  55  83 S6        29.94S
DUNKIRK        CLEAR     57  55  93 SW7       29.97S
JAMESTOWN      PTCLDY    55  50  82 W7        30.01R
WELLSVILLE     CLOUDY    59  49  69 SW7       30.01S
ROCHESTER      PTCLDY    58  56  93 SW5       29.93S
PENN YAN       CLEAR     60  53  77 SW7       29.96S
$$

             KEY
       WCI = WIND CHILL INDEX
       VSB = VISIBILITY
       HX  = HEAT INDEX
$$




USA.gov is the U.S. government's official web portal to all federal, state and local government web resources and services.